This demonstration page uses our WeatherBlox Daily Observations layout. Learn more.

Left ArrowRight Arrow

Hourly Observations for August 21, 2015

Temp ( °F °C ) Dew Point ( °F °C ) Humidity (%) Winds ( mph kmh ) Pressure ( in mb ) Visibility ( mi km ) Precip ( " mm )
12:15 am 00:15 Clear 70 21 56 13.5 62 62 S 15 24 29.80 1009 10 16 N/A
12:35 am 00:35 Clear 69 20.7 56 13.5 64 64 S 15 24 29.80 1009 10 16 N/A
12:55 am 00:55 Clear 69 20.3 56 13.5 65 65 S 15 24 29.80 1009 10 16 N/A
1:15 am 01:15 Clear 68 20.1 56 13.5 66 66 S 14 22 29.80 1009 10 16 N/A
1:35 am 01:35 Clear 67 19.6 56 13.5 68 68 S 14 22 29.80 1009 10 16 N/A
1:55 am 01:55 Clear 66 19 56 13.5 71 71 S 10 17 29.80 1009 10 16 N/A
2:15 am 02:15 Clear 66 18.7 56 13.5 72 72 S 10 17 29.80 1009 10 16 N/A
2:35 am 02:35 Clear 65 18.5 56 13.5 73 73 S 10 17 29.80 1009 10 16 N/A
2:55 am 02:55 Clear 64 18 56 13.3 74 74 S 10 17 29.83 1010 10 16 N/A
3:15 am 03:15 Clear 64 17.9 56 13.3 75 75 S 9 15 29.80 1009 10 16 N/A
3:35 am 03:35 Clear 64 17.6 56 13.2 76 76 S 8 13 29.80 1009 10 16 N/A
3:55 am 03:55 Clear 63 17.3 56 13.2 77 77 S 8 13 29.80 1009 10 16 N/A
4:15 am 04:15 Clear 63 17 56 13.2 78 78 S 7 11 29.80 1009 10 16 N/A
4:35 am 04:35 Clear 62 16.5 56 13.2 81 81 S 7 11 29.80 1009 10 16 N/A
4:55 am 04:55 Clear 60 15.8 55 13 84 84 S 6 9 29.80 1009 10 16 N/A
5:15 am 05:15 Clear 59 15.1 55 13 87 87 SE 6 9 29.80 1009 10 16 N/A
5:35 am 05:35 Clear 60 15.6 56 13.2 86 86 S 8 13 29.80 1009 10 16 N/A
5:55 am 05:55 Clear 59 15.2 55 13 87 87 SSE 5 7 29.80 1009 10 16 N/A
6:15 am 06:15 Clear 59 15 55 12.9 87 87 SSE 5 7 29.80 1009 10 16 N/A
6:35 am 06:35 Clear 58 14.5 55 12.9 90 90 S 7 11 29.80 1009 10 16 N/A
6:55 am 06:55 Clear 59 15 56 13.4 90 90 S 8 13 29.80 1009 10 16 N/A
7:15 am 07:15 Sunny 58 14.5 55 13 91 91 SSE 6 9 29.80 1009 10 16 N/A
7:35 am 07:35 Sunny 59 15 56 13.6 91 91 S 9 15 29.85 1011 10 16 N/A
7:55 am 07:55 Sunny 60 15.7 57 14 90 90 S 9 15 29.83 1010 10 16 N/A
8:15 am 08:15 Sunny 62 16.5 58 14.3 87 87 S 10 17 29.83 1010 10 16 N/A
8:35 am 08:35 Sunny 63 17.2 58 14.5 84 84 S 13 20 29.83 1010 10 16 N/A
8:55 am 08:55 Sunny 64 17.7 58 14.6 82 82 S 13 20 29.83 1010 10 16 N/A
9:15 am 09:15 Sunny 65 18.4 59 15 81 81 S 12 19 29.83 1010 10 16 N/A
9:35 am 09:35 Sunny 66 18.8 59 15.1 79 79 S 14 22 29.80 1009 10 16 N/A
9:55 am 09:55 Sunny 67 19.5 60 15.6 78 78 S 8 13 29.80 1009 10 16 N/A
10:15 am 10:15 Sunny 68 20.1 61 16 77 77 S 12 19 29.80 1009 10 16 N/A
10:35 am 10:35 Sunny 70 21 62 16.7 77 77 S 12 19 29.80 1009 10 16 N/A
10:55 am 10:55 Sunny 71 21.6 63 17 75 75 S 10 17 29.80 1009 10 16 N/A
11:15 am 11:15 Sunny 73 22.5 63 17.4 73 73 S 10 17 29.77 1008 10 16 N/A
11:35 am 11:35 Sunny 73 22.9 64 17.5 72 72 S 10 17 29.77 1008 10 16 N/A
11:55 am 11:55 Sunny 75 24 65 18.5 71 71 SSE 12 19 29.77 1008 10 16 N/A
12:15 pm 12:15 Sunny 75 24 65 18.2 70 70 S 12 19 29.74 1007 10 16 N/A
12:35 pm 12:35 Sunny 76 24.7 65 18.5 69 69 SSE 14 22 29.74 1007 10 16 N/A
12:55 pm 12:55 Sunny 77 25 65 18.6 68 68 SSE 15 24 29.74 1007 10 16 N/A
1:15 pm 13:15 Sunny 78 25.5 66 19 67 67 SSE 14 22 29.71 1006 10 16 N/A
1:35 pm 13:35 Sunny 78 25.8 65 18.6 65 65 SSE 17 28 29.68 1005 10 16 N/A
1:55 pm 13:55 Sunny 79 26 65 18.6 64 64 SSE 18 30 29.68 1005 10 16 N/A
2:15 pm 14:15 Sunny 80 26.8 67 19.3 64 64 S 17 28 29.68 1005 10 16 N/A
2:35 pm 14:35 Sunny 81 27 66 19 62 62 SSE 20 31 29.65 1004 10 16 N/A
2:55 pm 14:55 Sunny 82 27.6 67 19.3 61 61 SSE 21 33 29.65 1004 10 16 N/A
3:15 pm 15:15 Sunny 83 28.3 67 19.7 60 60 S 21 33 29.65 1004 10 16 N/A
3:35 pm 15:35 Sunny 84 28.8 68 20 59 59 S 17 28 29.62 1003 10 16 N/A
3:55 pm 15:55 Sunny 84 29.1 69 20.3 59 59 SSE 18 30 29.62 1003 10 16 N/A
4:15 pm 16:15 Sunny 84 29.1 68 20.2 59 59 SSE 22 35 29.62 1003 10 16 N/A
4:35 pm 16:35 Sunny 84 29 69 20.4 60 60 S 15 24 29.62 1003 10 16 N/A
4:55 pm 16:55 Sunny 84 29.1 69 20.4 59 59 S 17 28 29.62 1003 10 16 N/A
5:15 pm 17:15 Partly Cloudy 84 29.1 69 20.5 60 60 S 18 30 29.59 1002 10 16 N/A
5:35 pm 17:35 Partly Cloudy 84 29 69 20.5 60 60 S 16 26 29.59 1002 10 16 N/A
5:55 pm 17:55 Mostly Cloudy 84 28.8 70 21 63 63 SSE 13 20 29.59 1002 10 16 N/A
6:15 pm 18:15 Mostly Cloudy 84 28.7 69 20.6 62 62 S 16 26 29.59 1002 10 16 N/A
6:35 pm 18:35 Cloudy 83 28.3 69 20.8 64 64 SSE 12 19 29.62 1003 10 16 N/A
6:55 pm 18:55 Mostly Cloudy 82 27.9 69 20.6 65 65 SSE 12 19 29.62 1003 10 16 N/A
7:15 pm 19:15 Sunny 81 27.1 69 20.3 66 66 SSE 13 20 29.62 1003 10 16 N/A
7:35 pm 19:35 Sunny 80 26.6 69 20.4 69 69 S 13 20 29.62 1003 10 16 N/A
7:55 pm 19:55 Sunny 79 26.1 67 19.7 68 68 S 14 22 29.62 1003 10 16 N/A
8:15 pm 20:15 Sunny 78 25.5 68 19.8 71 71 S 15 24 29.62 1003 10 16 N/A
8:35 pm 20:35 Partly Cloudy 76 24.7 67 19.7 74 74 S 16 26 29.65 1004 10 16 N/A
8:55 pm 20:55 Partly Cloudy 75 24 67 19.7 77 77 S 15 24 29.68 1005 10 16 N/A
9:15 pm 21:15 Partly Cloudy 74 23.2 67 19.6 80 80 SE 12 19 29.65 1004 10 16 N/A
9:35 pm 21:35 Clear 74 23.1 67 19.5 80 80 SSE 13 20 29.65 1004 10 16 N/A
9:55 pm 21:55 Clear 73 23 67 19.2 79 79 S 15 24 29.68 1005 10 16 N/A
10:15 pm 22:15 Clear 73 22.6 67 19.2 81 81 S 14 22 29.68 1005 10 16 N/A
10:35 pm 22:35 Clear 73 22.5 67 19.5 83 83 S 12 19 29.68 1005 10 16 N/A
10:55 pm 22:55 Clear 72 22.2 67 19.5 85 85 S 14 22 29.68 1005 10 16 N/A
11:15 pm 23:15 Clear 71 21.8 67 19.5 87 87 S 15 24 29.68 1005 10 16 N/A
11:35 pm 23:35 Partly Cloudy 71 21.8 67 19.5 87 87 S 13 20 29.68 1005 10 16 N/A
11:55 pm 23:55 Partly Cloudy 71 21.6 67 19.6 88 88 S 15 24 29.68 1005 7 11 N/A

Powered by AerisWeather